Temperature
5 5 5 5 5 5 4 4 4 3 3 4 4 4 4 4 4 4 4 3 3 3 3 3 3 3 3 3 3 3 3 3 3 3 3 3 3 3
4 4 4 4 4 4 4 4 3 3 3 3 3 3 3 3 3 3 3 3 3 3 3 3 3 2 2 2 2 3 3 2 2 2 3 2 2 3
4 4 4 4 4 4 3 3 3 3 2 3 3 3 3 3 3 3 3 3 3 3 3 2 2 2 2 2 2 2 2 2 2 2 2 2 2 2
4 4 4 4 3 3 3 3 3 2 2 2 2 2 2 2 2 2 2 2 2 2 2 2 2 2 2 2 2 2 2 2 2 2 2 2 2 2
3 3 3 3 3 3 3 2 2 2 2 2 2 2 2 2 2 2 2 2 2 2 2 2 2 2 2 2 1 1 1 1 1 1 1 1 1 1
3 3 3 3 2 2 2 2 2 2 1 1 1 1 1 1 1 1 1 2 2 2 2 1 1 1 1 1 1 1 1 1 1 1 1 1 1 1
2 2 2 2 2 2 2 2 1 1 1 1 1 1 1 1 0 0 0 1 1 1 1 1 1 1 1 1 1 1 1 1 1 1 1 1 1 1
2 2 2 2 2 1 1 1 1 1 1 0 0 0 0 0 -0 -0 -1 -1 -0 0 0 1 1 1 1 1 1 1 1 1 1 1 0 0 0 0
1 1 1 1 1 1 1 1 0 0 0 0 -0 -0 -0 -0 -1 -1 -1 -1 -1 -0 -1 -0 0 0 1 0 0 0 0 0 0 0 -0 -0 -0 0
0 0 0 0 0 0 0 0 0 0 -0 -0 -0 -0 -1 -1 -1 -1 -1 -1 -1 -1 -1 -1 -0 -0 0 0 -0 -0 -0 -0 -0 -0 -0 -0 -0 -0
-0 -0 -0 -0 -0 -0 -0 -0 0 -0 -0 -1 -1 -1 -1 -1 -1 -1 -1 -1 -1 -1 -1 -2 -1 -1 -0 -0 -1 -1 -0 -0 -1 -1 -1 -0 -0 -1
-1 -1 -1 -1 -1 -1 -1 -1 -1 -1 -1 -1 -1 -1 -1 -1 -1 -1 -1 -2 -2 -2 -2 -2 -2 -2 -2 -1 -1 -1 -1 -1 -1 -1 -1 -1 -0 -1
-1 -1 -1 -1 -1 -1 -1 -1 -1 -1 -1 -1 -1 -1 -1 -1 -1 -1 -2 -2 -2 -2 -2 -2 -2 -2 -3 -2 -1 -1 -1 -1 -1 -1 -1 -1 -1 -1
-2 -2 -2 -2 -2 -2 -2 -2 -2 -2 -2 -2 -2 -1 -1 -1 -1 -1 -1 -2 -2 -2 -2 -2 -2 -2 -3 -3 -2 -2 -1 -2 -2 -1 -1 -1 -1 -1
-3 -3 -2 -2 -2 -2 -2 -2 -2 -2 -2 -2 -2 -2 -2 -2 -2 -2 -2 -2 -2 -2 -2 -2 -2 -2 -3 -3 -3 -2 -2 -2 -2 -2 -1 -1 -1 -1
-3 -3 -3 -3 -3 -3 -3 -3 -3 -3 -3 -3 -2 -2 -2 -2 -2 -2 -2 -2 -2 -2 -2 -2 -3 -3 -3 -3 -3 -3 -2 -2 -2 -2 -2 -1 -2 -2
-3 -3 -3 -3 -3 -3 -3 -3 -3 -3 -3 -3 -3 -3 -2 -2 -2 -3 -3 -2 -2 -2 -2 -2 -3 -3 -3 -3 -3 -3 -3 -2 -2 -2 -2 -2 -2 -2
-4 -4 -4 -4 -3 -3 -3 -3 -3 -3 -3 -3 -3 -3 -3 -3 -3 -3 -3 -3 -3 -3 -3 -3 -3 -2 -2 -3 -3 -3 -3 -3 -2 -2 -2 -2 -2 -2
-4 -4 -4 -4 -4 -4 -4 -4 -4 -4 -4 -4 -3 -3 -3 -3 -3 -3 -3 -3 -3 -3 -3 -3 -3 -3 -3 -3 -3 -3 -3 -3 -3 -2 -2 -3 -2 -2
-4 -4 -5 -5 -5 -5 -5 -4 -4 -4 -4 -4 -4 -4 -4 -4 -3 -3 -3 -4 -4 -3 -3 -3 -3 -3 -4 -4 -4 -3 -3 -3 -3 -3 -3 -2 -2 -2
-5 -5 -5 -5 -5 -5 -5 -5 -5 -5 -4 -4 -4 -4 -4 -4 -4 -4 -4 -4 -4 -4 -4 -4 -4 -4 -4 -4 -4 -3 -3 -3 -3 -3 -3 -3 -2 -2
-5 -5 -5 -5 -5 -5 -5 -5 -5 -5 -5 -5 -4 -4 -4 -4 -4 -4 -4 -4 -4 -4 -4 -4 -4 -4 -4 -4 -4 -3 -3 -3 -3 -3 -3 -3 -3 -3
-5 -6 -6 -5 -5 -5 -5 -5 -5 -5 -5 -5 -5 -5 -4 -4 -4 -4 -4 -4 -4 -4 -4 -4 -4 -4 -4 -4 -4 -4 -3 -3 -3 -3 -3 -3 -3 -3
Wind_Speed
4 5 4 4 3 4 4 4 4 4 5 3 2 2 3 3 6 6 7 9 11 11 11 11 11 12 12 13 13 13 14 14 15 15 15 15 15 13
4 4 4 4 4 4 4 4 4 5 5 3 3 3 3 4 7 6 7 10 10 11 11 11 11 12 12 12 13 13 13 14 14 15 15 15 15 13
4 4 4 4 4 4 4 4 4 4 6 5 3 3 4 4 5 5 6 6 7 11 11 11 11 11 12 12 13 13 13 13 14 14 15 14 14 13
4 4 4 4 4 4 4 4 4 4 5 6 4 3 4 4 4 4 5 6 6 10 11 11 11 11 12 12 12 12 12 13 13 13 13 13 13 13
4 4 4 4 4 3 3 4 3 3 3 4 5 3 3 3 4 5 5 5 6 8 9 9 10 11 11 12 12 11 11 12 11 11 12 11 11 11
3 3 3 4 4 4 3 4 3 3 3 3 4 4 3 3 3 4 5 4 5 6 7 8 9 10 11 11 11 11 11 11 11 10 10 9 9 10
2 3 3 4 5 5 4 3 3 3 3 3 4 4 4 3 4 3 5 5 5 3 4 5 5 5 7 9 10 10 10 10 10 9 8 8 8 9
2 2 2 3 4 4 5 5 5 4 4 4 4 5 5 5 4 4 4 5 5 2 3 6 4 5 6 5 8 9 9 8 8 8 8 8 8 9
2 2 2 2 3 2 3 4 4 5 5 5 5 5 5 5 5 5 5 5 5 4 4 5 4 5 5 6 9 8 8 8 8 8 7 7 7 7
2 2 2 3 3 2 2 2 3 3 4 4 5 6 6 5 5 6 6 5 4 3 2 3 4 4 5 5 7 7 7 7 6 6 6 6 6 6
2 2 2 3 3 2 2 3 3 3 3 4 5 5 6 7 6 3 3 3 4 3 1 2 2 4 4 4 4 6 7 7 7 7 7 5 5 5
2 2 3 3 3 2 2 2 3 3 3 3 3 4 4 4 5 3 4 3 3 3 1 1 2 2 3 3 3 4 5 7 7 7 7 6 5 4
2 2 2 2 3 3 2 2 3 3 2 2 2 2 2 2 3 3 2 3 3 3 2 1 2 2 2 3 3 3 3 4 5 6 7 7 6 4
2 2 2 2 2 2 2 3 3 2 1 1 2 2 2 3 3 3 3 3 3 4 4 3 2 2 3 4 4 3 4 4 3 4 4 7 7 7
1 1 2 3 3 2 3 3 2 1 1 1 2 2 2 3 3 3 3 2 3 3 3 3 3 2 2 3 3 3 3 3 3 3 4 4 4 4
1 1 2 3 3 2 2 2 1 1 1 2 2 2 2 2 2 2 2 2 2 3 3 3 3 2 2 3 3 3 3 2 3 4 4 4 4 3
0 1 1 2 2 2 2 1 1 1 1 2 2 2 2 2 2 2 2 2 2 3 4 3 4 2 2 2 2 3 3 3 3 3 3 4 3 3
1 0 1 1 2 2 2 2 1 2 2 2 2 2 2 2 3 3 2 2 2 3 3 3 4 4 2 1 1 2 2 3 3 3 2 2 3 3
1 0 1 1 2 2 2 2 2 2 2 2 2 2 2 2 2 2 3 3 3 3 3 3 3 3 3 3 3 1 2 3 3 2 2 2 2 4
1 1 1 1 2 2 2 2 2 2 2 2 2 2 2 2 2 2 2 2 3 3 3 3 2 2 2 2 2 3 4 3 2 2 3 2 2 3
1 1 1 2 2 2 2 2 2 2 2 2 2 2 2 2 2 2 2 3 3 2 3 3 4 6 3 1 2 3 3 3 2 2 2 2 2 2
2 2 2 2 2 2 2 2 2 2 2 2 2 2 2 2 2 2 2 2 2 2 3 3 4 3 2 2 2 3 4 4 5 5 3 1 0 1
2 2 2 2 2 2 2 2 2 2 2 2 2 2 2 2 2 2 2 2 2 2 3 3 3 3 2 2 2 3 4 4 3 3 3 4 4 3
Wind_Direction
235 231 233 234 224 226 222 219 225 260 266 251 251 248 282 295 299 308 304 303 307 305 303 301 299 301 301 301 303 305 307 309 309 309 306 307 308 310
232 225 233 239 230 225 223 223 221 231 257 253 250 262 277 294 296 306 302 303 304 303 302 300 298 297 298 299 301 303 305 305 307 306 306 305 308 308
233 228 239 239 230 226 222 221 223 224 253 272 263 265 267 273 298 304 302 301 302 300 299 300 296 294 296 299 300 300 302 303 305 304 305 305 307 305
236 234 243 237 230 227 220 226 233 230 237 266 279 274 276 277 292 294 304 303 299 295 296 297 297 296 298 299 299 300 302 303 304 304 305 303 304 304
234 232 238 224 228 231 225 230 235 238 230 249 278 283 286 295 305 302 298 297 301 299 297 298 298 301 302 301 301 302 303 304 304 304 304 304 305 307
237 231 230 225 225 224 231 230 225 226 231 246 273 286 283 287 289 302 307 304 303 310 306 307 304 305 306 303 302 300 301 305 305 306 308 309 309 311
249 242 238 235 238 234 232 226 222 227 237 249 268 283 284 289 287 291 295 303 299 296 307 308 311 311 312 306 302 299 302 305 306 309 309 310 309 308
251 259 255 254 256 256 249 248 240 237 240 250 261 264 276 278 279 282 288 302 299 303 313 302 308 301 308 307 304 306 306 309 309 311 308 308 312 311
256 263 276 285 292 275 271 278 273 266 253 243 247 258 265 266 271 276 274 280 280 288 305 290 300 300 310 311 312 313 312 312 315 315 313 309 312 318
277 268 270 280 270 265 270 273 272 270 263 254 244 254 261 260 253 263 270 280 291 289 288 279 294 300 312 316 319 324 324 322 326 331 333 330 330 333
289 296 286 273 282 281 274 280 288 289 292 289 286 289 297 296 286 276 273 284 299 300 282 280 293 306 305 304 318 332 336 335 333 334 340 341 338 336
308 296 288 286 286 278 256 265 282 291 304 313 317 322 323 315 307 265 244 252 283 288 269 296 291 323 314 305 316 332 336 331 332 334 342 349 342 346
295 294 286 298 297 294 284 272 278 285 281 287 300 316 327 321 314 305 268 237 247 263 268 300 287 301 286 304 312 320 333 332 337 340 342 346 348 345
282 289 296 310 304 307 309 318 322 324 310 312 318 322 322 315 311 311 304 290 258 258 263 264 261 268 288 300 300 316 325 327 333 335 338 340 343 342
298 312 330 325 317 316 333 340 348 1 353 329 312 304 300 301 312 322 329 330 324 301 272 261 254 259 263 272 287 301 312 315 324 331 334 333 327 331
326 335 342 343 343 342 343 345 355 352 312 293 298 304 316 326 331 332 331 341 347 339 331 316 291 252 270 270 269 287 298 300 320 327 326 325 331 335
326 336 344 344 352 353 358 3 358 353 339 325 327 330 335 339 334 332 330 343 346 336 338 345 338 312 259 259 279 290 303 306 308 319 325 328 329 336
8 326 345 354 347 343 343 345 344 334 324 322 327 329 329 326 328 333 339 346 341 336 335 336 340 349 359 342 227 275 297 299 311 316 320 324 323 331
22 345 342 338 327 323 326 328 321 318 319 325 326 325 327 326 328 335 341 345 343 339 336 336 341 352 355 340 331 311 288 303 314 315 314 314 309 318
11 335 323 317 311 312 317 318 323 332 338 338 328 325 329 329 330 333 337 336 331 335 340 346 348 340 311 298 309 317 314 291 297 311 320 322 321 324
345 328 316 312 313 312 312 314 318 322 328 326 323 324 328 332 330 328 330 338 344 346 344 335 319 327 312 308 330 332 330 335 325 294 312 332 346 359
341 333 323 318 318 317 320 321 321 325 327 321 319 324 325 322 321 327 335 344 340 339 330 330 339 354 13 21 350 334 342 354 3 14 19 49 65 331
326 326 325 324 321 318 319 320 322 321 320 319 323 324 321 322 325 328 336 342 343 349 352 353 359 9 8 356 345 345 351 357 8 20 27 27 33 23
Height
1464 1464 1464 1464 1464 1464 1464 1464 1464 1461 1459 1459 1459 1459 1459 1458 1458 1457 1455 1454 1453 1451 1450 1449 1447 1445 1444 1443 1441 1439 1438 1436 1434 1432 1431 1429 1427 1425
1459 1459 1459 1459 1459 1459 1459 1459 1459 1459 1455 1454 1455 1455 1454 1454 1453 1452 1451 1449 1448 1447 1445 1443 1442 1440 1439 1437 1436 1434 1432 1431 1429 1427 1425 1424 1422 1421
1454 1454 1453 1454 1453 1453 1454 1454 1454 1454 1451 1450 1451 1450 1450 1449 1448 1447 1446 1445 1443 1442 1440 1438 1437 1435 1434 1432 1430 1429 1427 1425 1423 1422 1420 1419 1417 1416
1449 1449 1448 1449 1448 1448 1449 1449 1449 1449 1449 1446 1446 1445 1445 1445 1444 1442 1441 1440 1438 1437 1435 1434 1432 1430 1428 1426 1425 1423 1422 1420 1418 1416 1415 1413 1412 1411
1445 1444 1444 1444 1444 1444 1444 1445 1445 1445 1445 1443 1441 1441 1441 1440 1439 1438 1437 1435 1433 1432 1430 1429 1427 1425 1423 1421 1420 1418 1416 1415 1413 1411 1409 1408 1407 1406
1441 1440 1440 1440 1440 1440 1440 1441 1440 1440 1440 1439 1438 1437 1436 1436 1435 1433 1431 1430 1428 1427 1425 1424 1422 1420 1418 1416 1414 1413 1411 1410 1408 1406 1404 1403 1402 1401
1436 1436 1436 1436 1436 1436 1436 1436 1436 1436 1435 1435 1434 1433 1432 1432 1430 1428 1427 1425 1423 1422 1420 1419 1417 1415 1413 1411 1409 1407 1406 1404 1403 1401 1400 1399 1398 1397
1432 1432 1432 1432 1432 1432 1432 1433 1433 1432 1431 1431 1430 1429 1428 1428 1427 1425 1423 1421 1418 1418 1416 1414 1412 1410 1408 1406 1404 1403 1402 1400 1398 1397 1396 1395 1393 1392
1429 1429 1428 1428 1428 1428 1428 1429 1429 1428 1428 1428 1426 1425 1425 1424 1423 1421 1420 1418 1416 1414 1412 1409 1408 1405 1404 1402 1400 1399 1398 1396 1394 1393 1392 1391 1390 1389
1425 1425 1425 1425 1425 1425 1425 1425 1424 1424 1424 1424 1423 1422 1421 1420 1420 1418 1417 1414 1412 1411 1409 1406 1404 1402 1400 1399 1397 1395 1394 1392 1391 1389 1388 1387 1386 1386
1422 1422 1422 1422 1422 1422 1421 1421 1420 1420 1420 1420 1419 1419 1418 1417 1416 1415 1413 1411 1408 1407 1406 1404 1401 1399 1397 1396 1394 1392 1391 1389 1388 1386 1384 1383 1383 1383
1419 1419 1419 1419 1419 1418 1418 1418 1417 1416 1416 1416 1416 1415 1414 1413 1412 1411 1409 1407 1405 1403 1402 1401 1399 1397 1394 1393 1392 1390 1388 1387 1386 1384 1382 1381 1381 1380
1416 1416 1416 1416 1416 1415 1415 1415 1414 1414 1413 1413 1412 1411 1410 1409 1408 1407 1406 1405 1403 1401 1401 1399 1397 1396 1395 1391 1389 1388 1386 1385 1383 1382 1381 1380 1379 1378
1414 1413 1413 1413 1413 1413 1412 1411 1411 1411 1410 1410 1409 1408 1407 1406 1405 1404 1403 1401 1401 1399 1398 1397 1395 1394 1392 1390 1388 1386 1385 1384 1382 1381 1379 1378 1377 1376
1412 1411 1411 1410 1410 1409 1409 1409 1409 1408 1407 1407 1406 1405 1404 1404 1402 1401 1400 1399 1398 1397 1396 1395 1394 1392 1391 1389 1387 1385 1383 1382 1381 1380 1378 1377 1375 1374
1409 1409 1408 1407 1407 1406 1406 1406 1406 1406 1405 1405 1403 1403 1402 1401 1400 1399 1397 1396 1395 1394 1394 1393 1392 1390 1388 1387 1385 1384 1382 1381 1380 1378 1377 1376 1374 1373
1407 1407 1406 1405 1404 1404 1404 1404 1403 1403 1403 1402 1402 1401 1400 1399 1398 1397 1396 1395 1393 1392 1392 1391 1390 1388 1387 1386 1384 1383 1381 1380 1379 1377 1376 1374 1373 1372
1406 1405 1404 1403 1403 1402 1402 1402 1402 1401 1401 1401 1400 1399 1398 1397 1397 1396 1395 1393 1392 1391 1390 1389 1388 1386 1385 1384 1384 1382 1380 1379 1378 1376 1375 1373 1371 1371
1403 1403 1402 1402 1401 1401 1400 1400 1400 1400 1400 1399 1399 1398 1397 1396 1395 1395 1394 1392 1391 1390 1389 1388 1387 1385 1384 1382 1382 1382 1380 1378 1377 1375 1374 1372 1371 1370
1401 1401 1401 1400 1400 1400 1399 1399 1399 1399 1399 1398 1397 1397 1396 1395 1394 1393 1393 1392 1390 1389 1388 1388 1386 1385 1384 1383 1382 1380 1379 1377 1376 1374 1373 1372 1371 1370
1400 1400 1400 1399 1399 1399 1398 1398 1398 1397 1397 1397 1396 1396 1395 1394 1393 1393 1392 1391 1390 1389 1388 1387 1386 1385 1384 1383 1382 1380 1379 1377 1376 1375 1373 1372 1370 1369
1399 1399 1399 1398 1398 1398 1397 1397 1397 1396 1396 1396 1395 1394 1394 1393 1393 1392 1391 1390 1389 1389 1388 1387 1387 1385 1384 1383 1381 1380 1378 1377 1376 1375 1374 1372 1371 1369
1398 1398 1398 1397 1397 1397 1397 1396 1396 1395 1395 1395 1394 1394 1393 1393 1392 1392 1391 1390 1389 1389 1388 1387 1387 1385 1384 1383 1381 1380 1379 1377 1375 1374 1374 1373 1372 1371